Time,TemperatureF,DewpointF,PressureIn,WindDirection,WindDirectionDegrees,WindSpeedMPH,WindSpeedGustMPH,Humidity,HourlyPrecipIn,Conditions,Clouds,dailyrainin,SoftwareType,DateUTC
2013-06-27 00:01:00,73.0,73.0,30.05,SSE,160,4.0,6.0,100,1.79,,,-99.99,,2013-06-27 04:01:00,
2013-06-27 00:11:00,73.0,73.0,30.05,SSE,160,4.0,6.0,100,1.79,,,-99.99,,2013-06-27 04:11:00,
2013-06-27 00:32:00,73.0,73.0,30.05,ENE,75,3.0,5.0,100,1.79,,,-99.99,,2013-06-27 04:32:00,
2013-06-27 00:42:00,72.0,72.0,30.06,NE,46,2.0,5.0,100,1.79,,,-99.99,,2013-06-27 04:42:00,
2013-06-27 01:02:00,72.0,72.0,30.06,NE,53,2.0,4.0,100,1.79,,,-99.99,,2013-06-27 05:02:00,
2013-06-27 01:12:00,72.0,72.0,30.05,North,0,0.0,0.0,100,1.79,,,-99.99,,2013-06-27 05:12:00,
2013-06-27 01:22:00,72.0,72.0,30.05,ENE,62,0.0,1.0,100,1.79,,,-99.99,,2013-06-27 05:22:00,
2013-06-27 01:32:00,72.0,72.0,30.05,NW,323,4.0,5.0,100,1.79,,,-99.99,,2013-06-27 05:32:00,
2013-06-27 01:53:00,72.0,72.0,30.04,WNW,287,1.0,3.0,100,1.79,,,-99.99,,2013-06-27 05:53:00,
2013-06-27 02:01:00,72.0,72.0,30.03,SE,141,0.0,2.0,100,1.79,,,-99.99,,2013-06-27 06:01:00,
2013-06-27 02:12:00,72.0,72.0,30.02,North,0,0.0,0.0,100,1.79,,,-99.99,,2013-06-27 06:12:00,
2013-06-27 02:22:00,72.0,72.0,30.02,North,0,0.0,0.0,100,1.79,,,-99.99,,2013-06-27 06:22:00,
2013-06-27 02:34:00,72.0,72.0,30.02,North,0,0.0,0.0,100,1.79,,,-99.99,,2013-06-27 06:34:00,
2013-06-27 02:43:00,72.0,72.0,30.02,South,169,3.0,3.0,100,1.79,,,-99.99,,2013-06-27 06:43:00,
2013-06-27 02:53:00,73.0,73.0,30.02,SSE,166,3.0,4.0,100,1.79,,,-99.99,,2013-06-27 06:53:00,
2013-06-27 03:02:00,73.0,73.0,30.01,SSE,166,3.0,4.0,100,1.79,,,-99.99,,2013-06-27 07:02:00,
2013-06-27 03:12:00,73.0,73.0,30.01,SSE,166,3.0,4.0,100,1.79,,,-99.99,,2013-06-27 07:12:00,
2013-06-27 03:22:00,73.0,73.0,30.01,SSE,166,3.0,4.0,100,1.79,,,-99.99,,2013-06-27 07:22:00,
2013-06-27 03:33:00,73.0,73.0,30.01,SW,215,3.0,4.0,100,1.79,,,-99.99,,2013-06-27 07:33:00,
2013-06-27 03:42:00,73.0,73.0,30.01,SW,235,4.0,4.0,100,1.79,,,-99.99,,2013-06-27 07:42:00,
2013-06-27 03:52:00,72.0,72.0,30.01,SW,228,3.0,3.0,100,1.79,,,-99.99,,2013-06-27 07:52:00,
2013-06-27 04:01:00,73.0,73.0,30.01,SSW,212,3.0,4.0,100,1.79,,,-99.99,,2013-06-27 08:01:00,
2013-06-27 04:22:00,73.0,73.0,30.01,SSW,205,5.0,7.0,100,1.79,,,-99.99,,2013-06-27 08:22:00,
2013-06-27 04:34:00,73.0,73.0,30.01,SSW,205,4.0,6.0,100,1.79,,,-99.99,,2013-06-27 08:34:00,
2013-06-27 04:43:00,73.0,73.0,30.01,SSW,201,4.0,5.0,100,1.79,,,-99.99,,2013-06-27 08:43:00,
2013-06-27 04:52:00,73.0,73.0,30.01,SSW,211,1.0,3.0,100,1.79,,,-99.99,,2013-06-27 08:52:00,
2013-06-27 05:02:00,73.0,73.0,30.01,SSW,211,0.0,1.0,100,1.79,,,-99.99,,2013-06-27 09:02:00,
2013-06-27 05:11:00,73.0,73.0,30.01,SSW,211,0.0,1.0,100,1.79,,,-99.99,,2013-06-27 09:11:00,
2013-06-27 05:22:00,73.0,73.0,30.02,WSW,242,3.0,3.0,100,1.79,,,-99.99,,2013-06-27 09:22:00,
2013-06-27 05:34:00,73.0,73.0,30.02,WSW,238,1.0,3.0,100,1.79,,,-99.99,,2013-06-27 09:34:00,
2013-06-27 05:53:00,73.0,73.0,30.03,SW,232,3.0,3.0,100,1.79,,,-99.99,,2013-06-27 09:53:00,
2013-06-27 06:01:00,73.0,73.0,30.03,SW,215,2.0,3.0,100,1.79,,,-99.99,,2013-06-27 10:01:00,
2013-06-27 06:11:00,73.0,73.0,30.03,SSW,212,0.0,2.0,100,1.79,,,-99.99,,2013-06-27 10:11:00,
2013-06-27 07:02:00,73.0,73.0,30.03,SSW,211,5.0,5.0,100,1.79,,,-99.99,,2013-06-27 11:02:00,
2013-06-27 07:22:00,73.0,73.0,30.04,WSW,240,2.0,2.0,100,1.79,,,-99.99,,2013-06-27 11:22:00,
2013-06-27 08:22:00,75.0,75.0,30.04,WSW,248,1.0,3.0,100,1.79,,,-99.99,,2013-06-27 12:22:00,
2013-06-27 08:42:00,77.0,76.0,30.04,SSW,210,1.0,4.0,98,1.79,,,-99.99,,2013-06-27 12:42:00,
2013-06-27 09:01:00,78.0,74.0,30.05,South,183,3.0,4.0,87,1.79,,,-99.99,,2013-06-27 13:01:00,
2013-06-27 09:22:00,80.0,73.0,30.06,WSW,240,4.0,5.0,80,1.79,,,-99.99,,2013-06-27 13:22:00,
2013-06-27 09:34:00,80.0,72.0,30.06,South,190,4.0,6.0,77,1.79,,,-99.99,,2013-06-27 13:34:00,
2013-06-27 10:33:00,84.0,74.0,30.04,WSW,243,3.0,5.0,71,1.79,,,-99.99,,2013-06-27 14:33:00,
2013-06-27 11:42:00,86.0,68.0,30.04,West,262,7.0,9.0,55,1.79,,,-99.99,,2013-06-27 15:42:00,
2013-06-27 12:34:00,88.0,68.0,30.03,SW,214,5.0,8.0,52,1.79,,,-99.99,,2013-06-27 16:34:00,
2013-06-27 12:43:00,89.0,67.0,30.03,SSW,207,5.0,8.0,48,1.79,,,-99.99,,2013-06-27 16:43:00,
2013-06-27 12:53:00,89.0,67.0,30.03,WSW,249,4.0,8.0,49,1.79,,,-99.99,,2013-06-27 16:53:00,
2013-06-27 14:44:00,90.0,66.0,30.01,West,260,5.0,9.0,46,1.79,,,-99.99,,2013-06-27 18:44:00,
2013-06-27 14:52:00,90.0,66.0,30.00,WSW,248,6.0,9.0,45,1.79,,,-99.99,,2013-06-27 18:52:00,
2013-06-27 15:01:00,90.0,65.0,30.00,WNW,300,3.0,7.0,44,1.79,,,-99.99,,2013-06-27 19:01:00,
2013-06-27 15:23:00,91.0,65.0,29.99,South,169,5.0,7.0,42,1.79,,,-99.99,,2013-06-27 19:23:00,
2013-06-27 15:34:00,91.0,66.0,30.00,SW,228,3.0,11.0,44,1.79,,,-99.99,,2013-06-27 19:34:00,
2013-06-27 15:53:00,92.0,68.0,29.98,WSW,245,0.0,3.0,45,1.79,,,-99.99,,2013-06-27 19:53:00,
2013-06-27 16:11:00,90.0,67.0,29.97,South,186,4.0,9.0,47,1.79,,,-99.99,,2013-06-27 20:11:00,
2013-06-27 16:54:00,90.0,67.0,29.95,West,259,6.0,9.0,47,1.79,,,-99.99,,2013-06-27 20:54:00,
2013-06-27 17:46:00,90.0,68.0,29.95,West,276,3.0,6.0,49,1.79,,,-99.99,,2013-06-27 21:46:00,
2013-06-27 17:53:00,90.0,71.0,29.95,NNW,342,4.0,9.0,54,1.79,,,-99.99,,2013-06-27 21:53:00,
2013-06-27 18:35:00,86.0,71.0,29.95,WNW,301,8.0,13.0,62,1.79,,,-99.99,,2013-06-27 22:35:00,
2013-06-27 18:56:00,85.0,72.0,29.94,NW,316,9.0,14.0,65,1.79,,,-99.99,,2013-06-27 22:56:00,
2013-06-27 19:05:00,85.0,71.0,29.95,NW,315,9.0,12.0,63,1.79,,,-99.99,,2013-06-27 23:05:00,
2013-06-27 19:15:00,85.0,72.0,29.95,NNW,336,6.0,8.0,66,1.79,,,-99.99,,2013-06-27 23:15:00,
2013-06-27 19:34:00,84.0,72.0,29.96,NW,311,7.0,11.0,67,1.79,,,-99.99,,2013-06-27 23:34:00,
2013-06-27 19:45:00,84.0,71.0,29.96,NW,311,7.0,11.0,66,1.79,,,-99.99,,2013-06-27 23:45:00,
2013-06-27 19:55:00,84.0,72.0,29.95,NNW,343,5.0,8.0,68,1.79,,,-99.99,,2013-06-27 23:55:00,
2013-06-27 20:14:00,84.0,71.0,29.94,NNW,336,5.0,8.0,66,1.79,,,-99.99,,2013-06-28 00:14:00,
2013-06-27 20:28:00,83.0,70.0,29.95,NNW,328,4.0,7.0,66,1.79,,,-99.99,,2013-06-28 00:28:00,
2013-06-27 20:35:00,83.0,72.0,29.96,South,170,7.0,13.0,69,1.79,,,-99.99,,2013-06-28 00:35:00,
2013-06-27 20:45:00,82.0,71.0,29.96,SSE,163,5.0,7.0,70,1.79,,,-99.99,,2013-06-28 00:45:00,
2013-06-27 20:54:00,82.0,71.0,29.96,SSE,162,8.0,14.0,70,1.79,,,-99.99,,2013-06-28 00:54:00,
2013-06-27 21:07:00,81.0,72.0,29.97,South,188,10.0,14.0,74,1.79,,,-99.99,,2013-06-28 01:07:00,
2013-06-27 21:14:00,80.0,71.0,29.97,South,183,8.0,11.0,74,1.79,,,-99.99,,2013-06-28 01:14:00,
2013-06-27 21:25:00,80.0,71.0,29.97,South,179,8.0,15.0,75,1.79,,,-99.99,,2013-06-28 01:25:00,
2013-06-27 21:56:00,79.0,72.0,29.97,South,191,7.0,10.0,80,1.79,,,-99.99,,2013-06-28 01:56:00,
2013-06-27 23:37:00,77.0,71.0,29.97,South,191,6.0,8.0,83,1.79,,,-99.99,,2013-06-28 03:37:00,